TimeEDT,TemperatureF,Dew PointF,Humidity,Sea Level PressureIn,VisibilityMPH,Wind Direction,Wind SpeedMPH,Gust SpeedMPH,PrecipitationIn,Events,Conditions,WindDirDegrees,DateUTC
12:53 AM,73.9,71.1,91,30.07,10.0,SW,3.5,-,N/A,,Clear,220,2012-09-01 04:53:00
1:53 AM,72.0,70.0,93,30.08,10.0,Calm,Calm,-,N/A,,Clear,0,2012-09-01 05:53:00
2:53 AM,72.0,69.1,91,30.08,8.0,Calm,Calm,-,N/A,,Clear,0,2012-09-01 06:53:00
3:53 AM,72.0,70.0,93,30.08,9.0,Calm,Calm,-,N/A,,Clear,0,2012-09-01 07:53:00
4:53 AM,72.0,70.0,93,30.07,9.0,Calm,Calm,-,N/A,,Mostly Cloudy,0,2012-09-01 08:53:00
5:34 AM,71.6,69.8,94,30.09,8.0,Calm,Calm,-,N/A,Thunderstorm,Mostly Cloudy,0,2012-09-01 09:34:00
5:46 AM,71.6,69.8,94,30.09,9.0,Calm,Calm,-,N/A,Thunderstorm,Scattered Clouds,0,2012-09-01 09:46:00
5:53 AM,71.1,69.1,93,30.08,9.0,SSW,3.5,-,N/A,Thunderstorm,Scattered Clouds,200,2012-09-01 09:53:00
6:23 AM,71.6,69.8,94,30.09,8.0,Calm,Calm,-,N/A,,Clear,0,2012-09-01 10:23:00
6:53 AM,71.1,69.1,93,30.08,7.0,East,4.6,-,N/A,,Partly Cloudy,80,2012-09-01 10:53:00
7:53 AM,73.0,71.1,93,30.09,7.0,Calm,Calm,-,N/A,,Clear,0,2012-09-01 11:53:00
8:53 AM,73.9,71.1,91,30.09,9.0,East,6.9,-,N/A,,Clear,80,2012-09-01 12:53:00
9:53 AM,75.0,69.1,82,30.10,10.0,East,4.6,-,N/A,,Partly Cloudy,90,2012-09-01 13:53:00
10:53 AM,75.0,66.9,76,30.09,10.0,ENE,5.8,-,N/A,,Clear,70,2012-09-01 14:53:00
11:53 AM,75.9,66.9,74,30.10,10.0,East,6.9,-,N/A,,Partly Cloudy,80,2012-09-01 15:53:00
12:53 PM,78.1,68.0,71,30.09,10.0,East,5.8,-,N/A,,Clear,90,2012-09-01 16:53:00
1:53 PM,78.1,69.1,74,30.08,10.0,East,5.8,-,0.00,Rain,Light Rain,90,2012-09-01 17:53:00
2:53 PM,79.0,71.1,77,30.07,10.0,Calm,Calm,-,0.00,,Mostly Cloudy,0,2012-09-01 18:53:00
3:53 PM,79.0,72.0,79,30.04,10.0,East,5.8,-,0.00,,Mostly Cloudy,80,2012-09-01 19:53:00
4:53 PM,81.0,72.0,74,30.01,10.0,ENE,4.6,-,N/A,,Clear,70,2012-09-01 20:53:00
5:53 PM,80.1,72.0,76,30.01,10.0,ENE,3.5,-,0.00,Rain,Light Rain,70,2012-09-01 21:53:00
6:05 PM,80.6,71.6,74,30.03,10.0,Calm,Calm,-,0.00,,Overcast,0,2012-09-01 22:05:00
6:53 PM,78.1,73.0,84,30.02,9.0,Calm,Calm,-,0.01,Rain,Light Rain,0,2012-09-01 22:53:00
7:53 PM,75.9,73.0,91,30.02,9.0,Calm,Calm,-,0.03,Rain,Light Rain,0,2012-09-01 23:53:00
8:53 PM,75.0,72.0,90,30.02,10.0,East,5.8,-,0.00,,Mostly Cloudy,80,2012-09-02 00:53:00
9:53 PM,73.9,69.1,85,30.03,10.0,ENE,5.8,-,N/A,,Clear,60,2012-09-02 01:53:00
10:53 PM,73.0,68.0,84,30.03,10.0,East,4.6,-,N/A,,Mostly Cloudy,80,2012-09-02 02:53:00
11:53 PM,72.0,68.0,87,30.04,10.0,ENE,3.5,-,0.00,,Overcast,60,2012-09-02 03:53:00